User: anonymous   Login
Location: Unspecified
(0.0000°N, 0.0000°E)
Time: 03:26:54
(UTC+00:00)
Language:

DSP F15 - Orbit

View from above orbital plane
View from above orbital plane
View from above satellite
View from above satellite

Ground track
Ground track

The orbit data is extracted from the following two-line orbital elements,

1 20929U 90095A   17107.84504899 0.00000000  00000-0  00000-0 0    01
2 20929  15.3481  11.7325 0005524 336.1565  23.8299  0.98395528    02
Epoch (UTC): 17 April 2017 20:16:52
Eccentricity: 0.0005524
inclination: 15.3481°
perigee height: 36297 km
apogee height: 36344 km
right ascension of ascending node: 11.7325°
argument of perigee: 336.1565°
revolutions per day: 0.98395528
mean anomaly at epoch: 23.8299°
orbit number at epoch: 0

The dashed part of the orbit path shows where the satellite is in the earth's shadow,  

DLR